Location: Unspecified
(0.0000°N, 0.0000°E)
Time: 17:14:49
(UTC+00:00)

STARLINK-31916 - Visible Passes

Search period start: 21 July 2024 00:00
Search period end: 31 July 2024 00:00
Orbit: 443 x 445 km, 43.0° (Epoch: 21 July)

Date Brightness Start Highest point End Pass type
(mag) Time Alt. Az. Time Alt. Az. Time Alt. Az.
21 Jul 5.9 03:58:36 19° ENE 03:58:36 19° ENE 03:59:44 10° ENE visible
22 Jul 5.5 04:54:00 13° NW 04:54:00 13° NW 04:55:30 10° NNW visible
23 Jul 6.1 04:15:52 11° N 04:15:52 11° N 04:16:01 10° N visible
